Weather in Uvary

Russia / Astrakhan Oblast     46°02′42″N   48°02′11″E
temp.,
°C
wind,
m/s
gust,
m/s
humid.,
%
clouds,
%
prec.,
mm/h
press.,
hPa
HPBL,
m
26 july, mon
mon2601:00+24nnw33390 0.0 101739
04:00+23ne410390 0.0 1017207
07:00+26ene411370 0.0 1018355
10:00+33e77234 0.0 10182593
13:00+35e87210 0.0 10172919
16:00+34ese98204 0.0 10162580
19:00+31ese782367 0.0 10171079
22:00+25ene47399 0.0 1017136
27 july, tue
tue2701:00+24ne4113874 0.0 1017238
04:00+26e61137100 0.0 1017604
07:00+26ene5936100 0.0 1018728
10:00+28ene7827100 0.0 10181781
13:00+28ne7821100 0.0 10171803
16:00+29ene3619100 0.0 10161933
19:00+26n81225100 0.0 1016814
22:00+25nne3726100 0.0 1016155
28 july, wed
wed2801:00+25nnw3627100 0.0 1016124
04:00+22nnw3433100 0.0 101667
07:00+23n3730100 0.0 1016206
10:00+29ne5521100 0.0 10162450
13:00+32nne4417100 0.0 10153268
16:00+33ne341799 0.0 10143285
19:00+28s652835 0.0 1015632
22:00+23sw47450 0.0 1015100
29 july, thu
thu2901:00+23w33410 0.0 101523
04:00+22nw22420 0.0 101511
07:00+25nne11310 0.0 101563
10:00+31nnw33200 0.0 10152896
13:00+34wsw22165 0.0 10143630
16:00+34s751941 0.0 10132785
19:00+30s772947 0.0 1014901
22:00+24ssw485518 0.0 1014138
30 july, fri
fri3001:00+23ssw46573 0.0 101486
04:00+22sw33610 0.0 101429
07:00+25w22520 0.0 1014116
10:00+31sw12250 0.0 10141266
13:00+35s75190 0.0 10133143
16:00+34s75190 0.0 10132288
19:00+30s55260 0.0 1013799
22:00+24s34510 0.0 101356